Карточка аэропорта UAAH

Внимание!
Информация на этой странице в стадии наполнения.
Если вы не увидели какой-то информации, или заметили неточность - пожалуйста сообщите нам!
Спасибо!
Команда RU-STAFF
Название аэропортаБалхаш
Название аэропорта (англ.)Balkhash
Превышение1446 ft. (440.7 m.)
Координаты46°53.424', 74°59.928'
Высота перехода10000ft
Эшелон переходаFL120, QNH<733:FL130
Коды ответчика3501-3517, 3401-3427
Зона ОрВДАлматы РПИ (UAAA)
Данные METARUAAH 250300Z 10006MPS 9999 SCT040CB 29/15 Q1001 NOSIG RMK QFE713/0950
Проноз погоды (TAF)UAAH 250207Z 2503/2512 15007MPS 9999 SCT040CB BKN070 TEMPO 2503/2506 09007MPS
NOTAMshow/hide NOTAM
AWOS   TABLE

Информация о ВПП


Диспетчерские позиции




Спутниковое изображение